Weather Roundup
Issued by NWS Chicago, IL

Current Version | Previous Version | Text Only | Print | Product List | Glossary On
Versions: 1 2 3 4 5 6 7 8 9 10 11 12 13 14 15 16 17 18 19 20 21 22 23 24 25 26 27 28 29 30 31 32 33 34 35 36 37 38 39 40 41 42 43 44 45 46 47 48 49 50
000
NZUS59 KLOT 220608
HRRLOT

CHICAGO AREA WEATHER ROUNDUP
NATIONAL WEATHER SERVICE CHICAGO/ROMEOVILLE IL
100 AM CDT TUE MAY 22 2018

NOTE: "FAIR" INDICATES FEW OR NO CLOUDS BELOW 12,000 FEET WITH NO
SIGNIFICANT WEATHER AND/OR OBSTRUCTIONS TO VISIBILITY.

* THESE STATIONS ARE NOT UNDER NWS QUALITY CONTROL. THEY ALSO MAY NOT
  REPORT WEATHER SUCH AS PRECIPITATION OR FOG.

ILZ005-006-012>014-019>023-220700-
NORTHEAST ILLINOIS

CITY           SKY/WX    TMP DP  RH WIND       PRES   REMARKS
OHARE          FOG       54  53  97 N5        29.97S VSB 1/4
6HR MIN TEMP:  54; 6HR MAX TEMP:  63;

MIDWAY         CLOUDY    57  57 100 CALM      29.97F FOG
6HR MIN TEMP:  57; 6HR MAX TEMP:  65;

AURORA         FOG       60  60 100 CALM      29.97S VSB 1/2
6HR MIN TEMP:  60; 6HR MAX TEMP:  69;

LANSING*       CLOUDY    56  56 100 CALM      29.98S FOG
JOLIET*        FOG       64  64 100 CALM      29.97F VSB 3/4
WAUKEGAN       CLOUDY    51  51 100 CALM      29.98S FOG
6HR MIN TEMP:  50; 6HR MAX TEMP:  51;

DUPAGE AIRPORT FOG       58  58 100 N3        29.97F VSB 1/4
6HR MIN TEMP:  58; 6HR MAX TEMP:  64;

WHEELING       FOG       54  53  97 N3        29.99F VSB 3/4
6HR MIN TEMP:  53; 6HR MAX TEMP:  58;

KANKAKEE*      FOG       62  61  97 CALM      29.97F VSB 1/4
MORRIS*        FOG       64  64  97 E3        29.96S VSB 1/4
LEWIS AIRPORT* FOG       61  61 100 CALM      29.97F VSB 1/2
NORTHERLY ISL    N/A     51  49  92 N2          N/A
$$

WIZ051-052-058>065-066-070>072-220700-
SOUTHEAST WISCONSIN

CITY           SKY/WX    TMP DP  RH WIND       PRES   REMARKS
MILWAUKEE      DRZL/FOG  49  48  97 N5        30.00F VSB 1/4
6HR MIN TEMP:  47; 6HR MAX TEMP:  49; 6HR PCP: TRACE;

KENOSHA*       FOG       49  48  97 CALM      29.99S VSB 1/2
RACINE*        FOG       47  47 100 N5        30.01F VSB 1/2
BURLINGTON     FOG       49  48  97 N5        29.99F VSB 1
WAUKESHA       FOG       46  46 100 NE5       30.00F VSB 3/4
WEST BEND      FOG       46  46 100 CALM      30.01F VSB 1/4
$$

INZ001>003-010>013-019-020-220700-
NORTHWEST INDIANA

CITY           SKY/WX    TMP DP  RH WIND       PRES   REMARKS
GARY*          FOG       57  57 100 N3        29.98F VSB 1
6HR MIN TEMP:  56; 6HR MAX TEMP:  69;

MICHIGAN CITY* NOT AVBL
RENSSELAER*    NOT AVBL
VALPARAISO     FOG       63  62  97 CALM      29.98F VSB 1/4
$$

LMZ740>746-220700-
SOUTHERN LAKE MICHIGAN

STATION/POSITION TIME  SKY/WX   TEMP WIND        PRES    VSBY
                                AIR  DIR/SP/G
                 (UTC)          (F)  (DEG/KT/KT) (MB)    (MI)
HARRISON CRIB    0540            49  350/ 10/ 11   N/A
BURNHAM HARBOR   0600            51  340/  2/  7   N/A
CALUMET HARBOR   0542            51   10/  4/  5 1014.8S
BURNS HARBOR     0540            55     CALM     1015.6F
MICHIGAN CITY    NOT AVBL
$$

ABBREVIATIONS USED IN REMARKS
   TC - TEMPERATURE IN CELSIUS
  WCI - WIND CHILL INDEX
   HX - HEAT INDEX
  VSB - VISIBILITY
$$




USA.gov is the U.S. government's official web portal to all federal, state and local government web resources and services.